GFSNW_sfc_wetblb_336.txt.gz
Wetbulb
55.06 54.91 55.13 55.12 55.17 55.29 54.03 51.56 43.58 51.36 51.31 46.22 46.95 43.10 46.03 45.68 46.13 48.75 47.29 46.97 45.04 44.25 44.79 43.38 42.50 43.21 45.34 46.38 46.83 42.84 44.36 41.18 36.43 38.02 42.38 43.17 41.86 39.47 39.81 34.94 35.51 36.74 36.07 37.07
54.51 54.65 54.76 54.94 54.38 53.95 52.38 46.71 47.17 49.90 50.41 42.23 43.50 47.21 47.97 48.77 46.69 45.01 46.27 45.32 46.43 46.57 44.14 41.53 44.10 44.70 47.02 47.14 45.81 43.42 44.09 38.89 34.08 34.95 36.96 38.99 37.94 40.69 41.06 40.35 39.07 35.91 32.84 38.10
53.94 54.07 54.34 54.17 54.06 53.90 52.29 46.99 41.52 43.72 44.74 44.33 41.79 44.26 45.35 45.26 49.39 47.65 46.65 46.04 46.99 44.77 43.30 45.04 43.29 44.70 46.40 46.07 46.21 48.67 46.66 40.92 38.01 34.94 38.72 40.32 36.11 39.27 40.97 39.69 33.84 35.26 39.05 42.18
53.35 53.74 54.04 54.09 53.64 53.46 51.33 46.08 41.95 45.18 39.52 40.33 41.80 43.53 45.30 44.31 43.88 47.70 47.77 43.89 44.62 43.76 40.60 41.96 41.74 44.53 44.50 45.10 48.04 44.28 43.41 37.57 39.58 41.19 42.52 42.32 41.45 41.11 39.77 38.43 39.77 36.97 39.03 41.24
53.06 53.27 53.44 53.56 53.18 52.79 47.53 41.46 42.03 45.74 42.48 43.08 41.95 42.29 42.17 42.23 44.94 45.71 44.41 43.73 45.82 45.02 41.78 42.81 41.52 43.88 43.93 43.61 43.65 41.76 43.05 37.40 39.93 38.57 41.97 41.68 40.03 41.39 41.14 40.84 40.94 40.45 41.09 40.71
52.49 52.62 52.54 52.90 52.66 51.25 46.12 46.00 46.77 42.58 39.79 40.93 40.12 40.70 41.71 42.70 45.60 46.94 47.97 46.58 45.48 44.51 46.01 47.62 47.19 47.16 46.74 46.06 44.43 40.92 40.78 38.60 36.95 34.32 39.79 39.89 36.56 40.61 41.34 41.38 42.80 41.27 37.60 42.29
52.28 51.97 52.44 52.63 52.34 51.11 48.40 46.50 46.37 40.52 34.97 36.96 38.05 40.63 41.98 42.45 44.23 43.23 47.25 48.82 45.82 47.87 51.59 50.97 49.99 48.35 47.05 46.18 45.15 45.73 41.17 39.44 38.39 34.30 35.98 28.72 39.84 42.70 43.70 43.10 43.66 44.30 44.00 44.28
51.35 51.27 51.65 51.89 52.30 51.72 48.93 48.27 45.06 40.75 34.63 37.96 38.20 39.31 39.85 41.56 42.53 42.60 44.46 46.60 49.37 51.56 47.92 42.39 41.11 41.55 41.66 42.94 44.36 44.13 44.57 41.15 36.11 32.83 33.16 38.39 41.58 42.79 41.42 40.87 41.47 45.74 44.62 45.79
50.84 50.98 51.16 51.45 51.55 51.62 49.66 48.50 49.17 43.93 36.53 34.54 38.31 36.67 37.28 37.14 37.98 40.50 43.37 48.77 50.85 49.23 43.41 39.77 35.16 34.07 37.93 37.00 39.27 44.37 43.92 42.99 38.48 34.11 29.88 28.75 39.24 44.48 46.68 45.54 38.44 46.21 47.15 46.76
50.44 50.20 50.60 51.29 51.28 51.33 49.48 47.41 49.31 44.40 37.07 39.86 39.67 36.73 37.35 41.26 40.41 37.92 40.90 44.47 44.98 48.04 40.82 36.60 35.24 35.08 41.61 35.94 36.37 34.64 37.63 38.02 35.04 35.35 33.92 37.72 44.56 44.16 45.68 36.00 38.97 45.66 47.65 47.30
49.68 49.73 49.86 50.14 50.89 51.18 49.19 45.96 49.20 44.64 39.61 40.05 41.96 42.27 38.84 39.32 39.47 36.20 39.99 38.50 42.72 42.61 38.94 37.43 37.20 36.98 39.24 38.53 41.18 39.07 36.09 34.62 33.80 35.40 32.26 31.01 45.88 43.60 41.33 44.33 45.77 46.56 47.59 47.36
49.44 49.49 50.18 50.67 50.82 50.85 50.30 43.88 48.66 48.70 42.27 40.50 45.08 45.24 46.01 44.66 43.92 41.18 42.15 39.75 38.90 40.38 39.95 39.97 40.03 38.12 40.33 39.81 35.02 44.03 35.66 40.06 37.55 38.36 37.69 45.36 46.15 44.95 46.83 48.08 47.92 46.55 46.52 48.12
49.42 49.90 50.17 50.54 50.61 50.60 49.58 45.71 46.70 45.33 40.89 40.45 41.18 40.05 44.56 47.46 46.60 46.86 39.01 40.77 41.81 40.54 42.96 39.75 41.43 37.80 42.52 36.98 39.02 41.97 44.77 45.13 40.40 39.94 43.86 45.00 45.95 47.55 48.50 48.85 47.73 48.70 48.59 49.92
49.30 49.93 50.11 50.20 50.21 50.08 49.77 45.34 46.47 44.55 41.35 34.03 37.04 45.51 43.03 47.19 47.04 46.40 45.78 43.33 44.02 43.48 42.75 38.03 35.11 33.70 43.97 40.01 42.10 42.44 45.43 45.72 42.97 41.73 44.10 44.51 45.91 46.88 48.10 48.80 48.88 49.10 49.01 49.21
49.09 49.69 49.90 49.97 49.82 49.97 48.90 47.26 46.79 47.01 40.40 33.18 35.99 41.42 43.55 44.95 45.95 44.35 44.67 43.63 42.56 41.40 38.92 37.50 33.70 39.72 40.22 41.30 42.07 41.30 45.38 43.62 41.93 40.91 44.53 45.20 45.48 47.64 48.87 47.85 48.06 48.83 48.51 48.20
48.63 48.57 49.03 49.31 49.45 49.06 45.17 39.22 45.27 47.27 46.11 38.06 31.79 40.67 39.94 42.07 43.02 43.57 43.19 42.49 41.43 41.04 39.42 38.30 39.02 40.87 39.04 35.34 35.63 42.57 45.51 47.28 47.66 45.29 48.27 47.20 46.99 47.44 48.08 47.43 47.86 49.09 48.83 48.80
48.27 48.67 48.81 48.79 48.59 46.30 41.04 37.08 44.74 47.99 46.61 37.05 31.99 32.86 39.47 41.42 41.65 40.54 41.31 43.15 41.76 41.06 38.74 37.30 37.82 38.34 39.99 36.40 33.34 41.75 44.83 46.82 48.07 49.24 48.39 46.27 47.88 46.47 47.70 47.92 48.39 49.08 48.45 48.89
47.96 48.40 48.60 48.27 47.92 46.56 42.21 44.49 46.50 47.56 42.71 39.75 31.34 31.58 35.84 41.42 36.43 35.41 41.13 38.03 40.00 40.38 38.89 39.24 37.33 38.51 38.44 33.13 39.17 41.78 44.00 45.20 45.92 46.82 47.94 47.46 48.63 48.81 48.87 48.99 49.12 47.59 47.49 47.44
47.79 47.89 47.30 46.00 43.20 39.61 40.67 47.04 47.27 46.16 40.77 31.87 31.16 29.50 29.14 40.58 37.80 38.33 38.46 39.67 34.63 39.30 35.48 36.26 37.73 35.27 32.86 37.07 39.10 40.94 43.55 43.75 44.33 46.22 46.75 46.86 46.47 47.07 48.12 48.76 48.26 47.00 47.57 47.96
46.98 44.90 40.11 33.00 38.27 47.22 46.82 42.19 36.71 36.57 34.84 34.75 31.37 36.03 31.40 37.32 36.01 35.34 34.92 37.51 32.93 27.32 33.67 37.62 34.77 33.68 39.44 40.66 42.30 43.93 44.43 45.30 45.74 43.39 43.10 44.89 45.30 46.35 47.03 47.35 48.84 48.91 48.09 47.26
42.15 35.16 33.36 39.86 46.65 42.20 37.24 32.25 31.51 32.03 29.81 32.58 33.97 33.64 30.71 38.19 31.60 31.78 35.45 32.33 32.72 28.99 30.53 31.87 28.64 29.93 36.17 40.62 41.43 43.59 44.86 45.79 46.18 46.79 46.97 47.20 47.07 46.81 47.19 47.90 48.82 49.26 49.63 49.09
41.52 40.87 42.96 42.62 35.97 32.96 30.93 29.75 30.59 29.39 28.40 34.12 32.20 33.61 35.30 35.95 38.89 34.24 34.00 30.56 31.59 23.89 36.59 31.83 29.84 34.09 38.90 40.17 40.82 42.43 43.90 44.48 44.79 45.76 45.65 46.86 47.47 48.01 48.24 48.41 48.58 49.24 49.78 50.22
42.23 36.68 32.20 32.16 31.47 27.22 25.29 18.80 27.50 28.59 32.86 35.40 35.06 32.96 36.54 37.76 37.68 33.84 32.80 30.15 28.03 34.23 29.84 26.23 30.57 37.45 40.69 41.33 42.39 43.03 44.28 44.66 44.90 45.12 46.05 46.79 47.18 48.09 48.24 48.19 49.43 49.73 49.43 49.73
33.12 31.04 25.65 27.53 25.28 26.10 27.72 28.75 29.90 33.93 35.46 36.15 36.80 34.71 34.56 36.69 33.34 33.29 30.58 31.49 33.07 27.18 25.31 26.81 34.35 38.02 40.55 42.62 44.03 44.15 43.98 44.70 44.75 45.25 46.08 46.41 46.95 47.14 48.11 48.50 49.06 48.85 48.53 49.12
31.82 31.44 23.76 25.63 30.75 33.71 35.03 35.77 35.31 36.90 38.00 37.51 35.58 35.85 35.41 33.09 31.60 32.09 30.81 29.60 25.12 25.90 27.51 32.51 36.50 37.69 37.62 37.40 38.98 39.02 40.29 40.39 40.47 41.85 41.97 42.07 42.35 44.73 46.81 48.00 48.08 48.06 47.62 45.95
32.56 31.38 28.34 31.77 32.10 31.40 32.97 33.97 34.02 37.32 37.48 37.50 36.28 32.60 31.12 31.38 31.83 30.40 27.30 27.19 25.13 28.35 33.32 34.99 35.36 35.14 35.57 35.76 36.47 36.75 37.47 37.09 37.84 38.83 40.00 41.45 41.91 42.04 43.72 44.60 44.51 44.30 44.32 43.90
31.38 29.13 32.97 31.64 31.74 31.55 32.83 35.35 35.24 39.02 35.65 29.71 31.93 28.55 28.45 32.97 30.26 29.69 30.62 28.78 32.50 33.52 34.52 35.66 35.73 35.17 34.85 35.14 35.80 37.43 37.49 36.70 37.22 38.60 39.79 41.05 42.28 42.33 40.49 38.22 38.94 39.70 39.29 38.86

GFSNW_sfc_wetblb_339.txt.gz
Wetbulb
54.42 54.63 54.49 54.71 54.89 53.97 52.25 45.08 39.43 47.56 52.17 46.74 46.80 42.89 43.67 45.02 44.24 45.54 44.28 43.39 42.49 39.97 40.52 38.04 37.91 38.69 41.06 43.43 44.08 39.54 40.43 36.07 31.09 34.85 38.23 39.89 37.06 36.22 35.97 30.83 31.05 32.37 32.03 34.66
54.27 54.10 54.47 54.41 53.88 52.91 46.33 40.79 41.96 47.35 52.11 41.41 41.13 44.55 46.26 46.85 45.72 45.40 42.54 42.25 44.18 43.41 39.85 37.68 39.54 41.17 44.28 44.16 42.80 40.58 40.50 34.64 29.87 32.46 35.05 36.38 35.74 37.25 37.88 36.30 34.54 31.47 28.97 34.04
53.49 53.70 53.74 53.73 53.44 53.09 46.74 39.48 35.70 43.64 42.40 44.56 40.55 40.56 43.11 43.23 49.45 46.96 47.77 44.54 44.59 41.62 40.06 40.71 39.72 39.92 43.69 43.73 43.69 48.27 44.85 35.88 33.20 30.77 34.15 36.23 33.05 36.40 37.30 36.58 29.56 32.54 34.90 37.53
52.89 53.07 53.24 53.63 53.22 52.88 45.65 39.23 34.71 39.38 36.69 40.19 40.26 42.61 42.72 41.82 42.84 47.95 46.68 41.94 44.23 41.24 37.21 38.96 38.33 40.52 40.83 42.67 46.32 41.38 40.39 33.89 34.90 36.83 38.13 38.25 38.39 37.61 36.81 35.68 37.99 33.31 35.78 38.09
52.60 52.66 53.05 53.25 52.81 51.99 43.44 35.82 35.02 38.29 36.32 40.19 40.09 39.88 38.62 39.40 42.22 44.17 44.38 44.03 44.71 42.18 39.07 40.15 38.17 40.53 38.43 40.16 38.91 38.79 38.77 33.98 35.93 36.15 38.77 38.36 37.20 39.19 38.97 38.12 39.05 38.74 39.67 39.33
52.04 52.19 52.41 52.60 52.51 49.84 41.38 41.25 41.54 38.46 35.90 36.03 35.84 36.57 39.28 39.84 43.38 44.80 45.75 45.53 44.45 43.03 43.84 44.87 44.56 45.04 44.81 41.96 40.05 37.20 36.28 34.95 33.05 32.01 35.46 36.21 33.44 38.76 39.82 38.85 40.31 40.31 35.70 41.34
51.41 51.67 51.92 52.10 52.28 50.36 43.70 41.64 41.23 36.28 32.14 34.54 34.08 36.38 36.92 36.81 38.41 38.44 42.16 42.67 42.56 47.00 48.69 48.82 47.97 44.95 43.93 43.70 43.35 41.34 36.52 34.63 33.84 30.04 32.60 26.80 37.78 40.73 41.90 41.12 42.46 42.91 43.34 42.78
50.95 51.35 50.89 51.29 51.81 51.47 44.55 43.93 41.97 38.70 33.20 34.68 36.24 36.85 37.51 36.95 38.15 38.84 40.66 41.59 44.18 47.50 45.97 41.44 38.96 39.04 39.29 41.34 43.50 40.11 41.17 36.38 30.05 30.51 29.29 36.65 39.64 40.84 39.27 38.78 38.69 43.24 42.20 44.28
50.36 50.50 50.84 50.47 51.02 51.16 46.51 43.67 45.27 42.00 35.68 33.76 36.33 34.49 35.46 33.36 33.56 34.07 36.65 43.24 45.86 45.12 42.13 39.97 34.16 32.26 35.47 34.64 36.39 44.22 39.03 40.20 37.04 28.67 27.21 26.45 36.77 41.95 45.97 43.10 36.70 44.09 44.55 44.24
49.80 49.58 49.82 50.18 50.87 50.73 47.35 43.34 45.97 41.20 36.16 39.13 36.93 34.36 33.83 37.87 36.33 35.41 36.57 40.01 39.74 42.94 39.62 36.50 34.72 33.65 38.00 33.61 33.32 32.10 36.37 33.52 33.16 34.14 32.22 33.71 41.14 43.24 42.84 34.65 36.98 43.60 44.17 44.61
49.21 49.26 49.51 50.05 50.13 50.52 47.70 43.06 46.48 42.25 37.41 38.69 40.91 40.57 37.35 36.55 36.15 32.47 37.25 35.52 37.11 37.26 36.23 36.61 37.07 36.15 37.54 36.29 38.52 37.04 32.39 29.09 31.77 33.66 28.77 29.57 43.59 41.91 40.68 41.72 42.49 44.76 44.53 44.95
48.98 49.22 49.54 49.74 49.96 50.39 49.49 41.51 45.58 46.34 40.35 39.02 43.82 43.26 44.01 42.85 41.45 37.83 37.39 36.56 36.61 38.40 34.03 34.46 34.94 35.95 38.80 36.28 32.31 41.15 36.08 38.44 32.64 35.54 37.12 42.97 42.53 41.10 44.32 44.52 44.03 46.23 45.32 45.67
49.16 49.65 49.73 49.27 49.45 49.80 48.75 42.90 42.32 42.35 39.19 37.94 39.00 38.91 43.25 45.89 45.41 45.84 37.17 38.01 39.56 39.96 42.17 37.51 34.82 30.89 34.04 32.20 35.66 38.30 40.58 43.20 37.87 36.87 41.26 41.32 44.40 47.01 47.35 45.47 45.44 47.27 45.55 47.21
48.93 49.24 49.25 49.33 49.97 50.07 49.21 43.56 44.37 42.24 38.02 33.40 33.56 42.86 40.43 45.07 45.13 44.88 44.52 41.69 41.94 40.68 40.86 37.05 32.90 32.29 37.15 31.53 34.29 33.13 35.01 36.19 40.37 41.89 44.20 43.11 43.54 45.00 46.80 47.19 46.58 46.37 46.76 47.53
48.68 48.77 49.13 49.66 49.83 49.79 48.26 45.62 44.70 45.15 38.51 31.78 35.20 39.79 40.66 42.38 43.05 42.16 43.01 41.87 40.05 38.48 36.53 35.36 33.21 36.75 36.04 35.81 36.20 34.02 39.22 37.15 35.70 35.66 43.29 44.40 42.66 45.51 46.23 45.24 45.69 46.65 46.59 46.80
48.59 48.70 48.58 48.75 49.12 49.02 44.20 37.71 42.95 45.83 44.33 36.73 30.47 38.43 37.21 39.78 40.57 40.81 41.13 41.06 39.75 38.77 36.98 36.26 37.82 40.07 37.05 31.84 30.21 35.95 38.74 40.58 41.19 39.20 45.20 46.24 47.28 47.92 47.07 46.03 45.70 46.10 45.85 46.03
48.00 48.52 48.50 48.40 48.34 45.71 40.64 36.93 40.59 46.76 45.53 36.87 30.87 31.74 35.59 39.36 38.87 38.35 38.56 39.89 39.37 38.02 35.94 35.41 36.05 36.79 38.12 34.21 30.75 36.21 38.97 42.62 42.25 42.65 41.63 39.19 41.85 45.13 47.95 46.40 46.89 47.81 46.25 45.77
47.65 47.99 48.02 47.93 47.26 45.88 42.13 44.16 46.25 46.66 42.23 38.60 30.44 24.22 30.64 36.38 32.21 31.67 36.21 33.59 35.26 37.18 36.84 35.81 34.94 35.93 36.18 30.96 35.92 37.59 39.12 40.12 40.20 40.89 42.06 42.08 43.82 45.20 46.85 48.46 47.90 46.75 46.91 47.44
47.73 47.48 47.06 43.01 40.39 39.18 40.12 46.78 46.99 45.57 40.20 31.50 31.14 28.89 26.43 37.38 35.19 35.03 34.29 34.97 31.96 35.26 32.94 33.65 35.26 32.68 29.93 34.07 35.94 37.38 39.13 38.85 39.60 41.69 42.81 43.15 43.93 44.83 45.54 45.75 46.00 45.73 46.29 47.36
46.69 41.67 36.23 32.26 35.18 45.86 46.00 41.74 36.00 36.15 34.28 33.50 29.85 30.32 26.20 33.66 33.33 30.43 31.16 34.11 31.59 27.89 29.04 35.29 32.40 31.11 35.94 37.45 38.52 39.54 40.66 41.28 42.29 41.24 41.15 42.28 42.57 43.78 44.61 45.09 46.30 46.38 46.61 47.28
40.25 32.65 32.96 35.11 44.05 39.44 35.27 31.72 30.96 30.38 29.40 31.86 32.30 30.38 28.26 33.68 28.24 26.57 32.85 26.23 29.13 18.59 26.17 29.07 26.96 27.63 34.10 38.51 38.72 40.25 41.10 42.17 43.00 43.61 43.73 44.24 44.51 43.91 44.07 44.69 45.76 46.73 47.35 47.28
38.61 38.35 40.85 38.90 34.71 32.40 29.31 27.64 25.74 29.01 26.78 25.76 30.19 31.23 32.01 30.90 33.97 29.26 27.88 26.41 22.02 18.46 27.97 21.59 17.29 31.03 35.51 36.87 38.17 39.72 40.75 41.42 41.74 42.94 42.98 43.95 44.51 45.07 45.35 45.63 45.74 46.41 47.40 47.96
41.79 35.78 32.26 31.35 30.92 25.70 19.42 12.24 23.98 22.40 28.03 32.43 32.22 30.00 31.31 30.91 32.64 30.83 29.00 27.38 25.61 28.83 16.24 21.55 26.98 34.52 37.02 38.14 39.28 40.03 41.51 41.58 41.84 42.40 43.45 44.23 44.61 45.59 45.14 44.60 45.77 46.81 47.09 47.79
31.95 29.93 24.50 23.89 21.06 17.96 18.62 19.39 22.93 29.24 31.10 32.50 33.50 31.59 33.59 33.50 32.52 30.97 28.92 27.23 28.85 25.84 23.25 24.09 32.11 34.61 35.13 36.58 37.85 38.08 38.50 40.13 41.12 41.46 42.12 42.47 42.86 43.33 44.54 45.10 45.90 46.17 46.01 47.06
30.86 26.04 16.15 19.44 23.84 21.28 26.44 29.43 28.59 31.94 34.64 34.32 33.47 32.90 33.52 31.98 30.86 31.62 28.61 26.92 25.25 25.98 25.56 29.59 33.12 33.72 34.64 35.03 35.99 35.54 36.62 37.49 38.31 39.48 39.51 40.02 40.19 39.70 41.25 43.49 44.93 46.03 46.16 46.05
30.60 28.63 19.60 21.90 25.53 23.26 22.76 23.69 28.93 34.13 34.58 34.80 33.71 28.94 28.16 24.65 29.65 29.01 27.10 25.71 24.78 27.06 31.25 32.92 33.57 33.44 33.98 34.58 35.67 35.42 36.25 37.10 37.66 37.85 38.83 39.21 39.48 39.33 39.28 40.41 40.15 41.97 43.94 44.21
29.88 28.22 29.95 20.89 20.50 23.89 25.31 30.17 31.28 36.03 32.25 24.89 26.02 20.08 20.98 22.69 25.98 22.66 27.07 26.06 29.37 31.10 32.10 32.23 32.66 32.46 32.59 33.04 33.04 33.65 33.27 33.63 34.78 35.66 36.61 37.28 38.67 38.25 37.65 35.41 34.70 36.02 36.84 37.63

GFSNW_sfc_wetblb_342.txt.gz
Wetbulb
54.24 54.10 53.94 54.00 54.37 53.25 49.05 42.65 33.58 46.53 51.86 45.51 44.81 41.07 39.77 44.77 44.14 46.36 43.86 41.28 40.07 37.77 38.64 36.48 35.61 37.38 40.16 42.49 41.73 38.17 38.83 34.26 30.53 33.96 36.08 37.76 35.56 35.55 34.90 29.74 29.39 29.89 29.50 32.95
53.80 53.90 53.55 53.86 53.54 52.09 44.31 36.89 38.83 45.71 50.69 40.01 38.23 42.10 43.36 45.63 44.65 44.10 44.09 41.34 41.96 41.05 38.32 35.83 37.63 38.75 43.69 43.26 41.59 39.37 39.08 33.61 29.06 31.80 33.29 34.15 33.88 35.13 36.00 34.37 32.20 29.71 27.14 32.84
52.97 53.13 53.43 53.49 53.29 52.83 44.83 36.55 33.13 42.17 41.88 43.53 41.97 39.66 39.86 40.16 45.97 44.52 46.13 44.54 45.34 42.70 39.66 39.61 37.73 38.15 42.54 43.43 42.33 48.83 43.78 34.14 32.76 30.19 31.97 34.57 31.65 34.39 35.33 35.10 27.90 30.80 34.40 37.07
52.32 52.76 52.96 52.85 53.12 52.81 44.23 37.28 31.58 38.02 32.36 37.20 37.62 39.43 40.72 39.00 39.84 44.99 45.96 42.22 43.18 41.99 36.18 37.71 36.82 39.31 39.41 41.88 45.77 40.40 38.95 33.51 33.19 34.64 36.21 35.69 36.10 36.13 35.95 33.10 36.21 32.68 33.82 36.12
51.78 52.01 52.46 53.02 52.63 51.21 44.14 36.26 34.02 35.66 33.14 36.11 34.92 38.17 37.21 37.24 39.15 40.11 39.26 40.04 42.73 42.11 39.73 40.09 37.60 39.25 37.23 37.77 37.98 37.07 37.05 32.88 33.00 33.47 37.13 36.22 35.65 38.24 37.79 37.18 37.31 37.27 38.05 37.77
51.61 51.62 51.78 51.89 52.08 48.69 39.93 41.11 40.14 37.38 33.66 31.84 30.22 31.85 35.47 37.89 37.70 39.94 40.43 38.59 38.07 39.67 42.34 41.97 43.13 45.41 44.02 42.43 38.73 36.03 34.76 33.76 31.31 28.06 34.20 34.56 31.44 36.87 38.46 38.91 38.70 39.22 34.48 40.46
51.14 51.10 51.31 51.74 51.95 48.97 42.74 40.86 39.55 35.20 32.03 32.44 31.67 33.98 34.69 34.61 36.33 36.06 38.70 39.88 38.24 42.39 45.80 45.20 45.28 45.15 45.11 42.58 41.81 39.91 34.44 33.02 32.32 27.95 30.26 25.12 36.40 38.07 39.24 39.57 41.06 41.56 41.87 43.12
49.77 50.32 50.69 50.91 51.33 51.05 44.32 42.96 40.41 36.33 31.82 34.28 33.10 34.58 35.17 36.21 36.22 34.52 35.59 37.25 39.80 43.09 42.22 37.63 37.07 37.28 38.92 41.04 42.50 39.42 39.85 34.89 28.61 29.26 27.26 35.31 38.20 40.60 37.29 36.67 37.75 41.09 41.28 43.11
49.97 50.15 50.07 50.09 50.91 50.98 44.94 43.11 45.27 41.69 35.95 32.90 35.61 32.74 33.58 31.51 30.53 31.69 34.18 39.00 40.96 41.98 40.26 37.13 32.00 30.97 35.56 33.80 35.40 43.63 39.00 39.82 35.63 27.02 25.25 25.84 34.87 40.57 44.08 41.79 35.04 42.84 42.69 42.49
49.28 49.46 49.66 49.81 50.31 50.65 45.57 42.47 46.59 42.75 36.25 38.54 37.99 34.17 33.01 35.12 33.33 31.28 33.72 36.84 35.64 38.60 34.47 32.69 31.07 31.16 38.65 33.79 33.21 33.44 35.14 32.01 32.12 33.15 31.27 34.47 39.88 42.65 42.18 31.87 35.23 41.44 41.77 42.22
49.03 49.33 49.52 49.76 49.90 50.35 46.87 42.30 45.87 42.38 37.45 37.15 39.26 39.24 35.73 35.34 34.75 31.45 32.71 33.06 33.43 32.17 30.04 30.61 33.74 34.47 36.56 35.91 37.45 36.21 34.93 30.63 31.57 31.89 30.27 28.81 41.68 40.58 39.83 41.59 45.47 42.18 43.01 44.07
49.02 49.06 49.33 49.63 49.81 50.03 49.17 39.72 44.57 46.12 40.35 36.88 40.83 41.27 42.72 41.12 40.20 36.53 35.51 33.93 33.41 36.31 33.34 32.01 34.00 30.69 32.18 30.93 29.06 38.03 33.39 37.22 34.99 35.45 36.56 42.08 41.75 41.52 42.95 43.32 42.74 43.23 41.34 43.17
49.09 49.43 49.15 49.20 49.50 49.57 48.33 41.32 41.14 42.29 39.42 37.88 36.66 36.40 41.08 43.80 43.30 44.11 36.04 36.75 37.69 36.65 38.96 35.26 34.29 29.81 33.26 27.24 28.30 31.34 34.67 36.80 33.06 34.58 41.05 37.82 38.30 45.21 44.34 45.13 45.48 46.94 47.37 46.00
49.04 49.17 49.22 49.44 49.87 49.66 49.06 43.35 42.86 42.95 39.45 32.84 31.47 40.38 37.61 42.67 43.65 43.20 42.78 40.60 40.64 39.51 38.36 35.45 33.07 31.73 36.79 31.55 31.95 31.32 34.72 36.14 33.21 33.36 35.52 39.77 42.17 41.25 41.55 43.34 46.67 46.42 46.14 44.56
48.87 49.14 49.04 49.08 49.45 49.19 47.26 44.73 43.87 45.25 38.55 32.00 32.72 36.65 39.34 41.08 41.03 40.77 41.84 41.12 39.93 38.51 35.76 34.32 32.16 35.62 34.76 34.73 33.88 31.72 35.36 33.19 31.17 30.38 37.09 38.72 39.14 41.39 42.82 43.12 44.55 46.09 46.94 43.96
48.35 48.42 48.51 48.79 48.98 48.50 42.81 36.44 41.15 44.96 44.01 35.67 30.00 35.24 34.94 37.43 38.89 39.42 39.41 39.84 39.11 38.63 36.47 34.58 36.19 38.25 35.64 30.77 29.18 34.77 37.54 39.60 40.33 37.76 41.25 41.13 41.27 42.61 44.47 42.87 42.56 45.25 45.79 46.64
48.03 48.11 48.26 48.23 47.99 42.95 40.15 36.35 40.19 45.94 45.16 36.42 30.86 30.36 33.85 36.87 37.19 36.41 36.73 39.63 39.20 38.29 36.05 34.45 34.47 35.01 36.25 32.14 28.32 34.48 37.43 39.69 40.40 41.09 40.43 38.41 40.57 40.83 44.48 44.11 43.50 44.14 44.36 46.36
47.92 48.07 47.99 47.69 47.52 45.17 41.07 43.48 46.71 46.73 41.82 38.39 30.12 26.67 28.05 35.75 31.51 30.59 34.76 31.86 34.36 35.40 34.84 33.31 33.03 34.36 34.73 29.13 33.40 35.34 37.01 38.33 38.89 39.72 40.62 40.26 41.52 42.39 42.22 42.92 42.90 42.23 43.55 45.78
47.68 47.33 46.14 41.56 40.65 38.86 39.40 46.86 46.98 45.57 38.71 31.66 29.19 26.18 26.18 36.35 33.81 34.28 34.38 35.22 30.25 34.79 30.39 32.19 33.73 30.80 27.87 31.24 33.45 34.93 36.70 36.51 37.34 39.76 40.41 40.69 40.01 40.10 41.06 41.49 41.57 41.86 44.50 45.52
46.54 40.86 34.90 32.80 34.12 44.11 44.63 41.39 35.81 36.17 34.49 34.31 29.62 29.86 25.12 33.12 31.59 30.35 31.16 33.92 31.89 27.14 29.11 35.17 31.21 29.00 34.34 35.84 36.78 37.36 37.80 38.41 39.37 37.41 37.08 38.71 38.99 39.70 40.26 40.79 42.99 44.15 44.45 45.16
37.67 32.42 30.07 34.69 42.53 37.47 33.31 31.03 30.41 30.35 28.97 31.40 32.50 31.68 28.27 32.29 27.52 25.02 29.85 21.84 22.04 22.85 23.81 27.07 22.78 24.41 32.84 37.06 37.28 38.40 39.15 39.49 39.18 39.40 39.68 40.14 40.55 40.34 40.79 42.22 43.84 44.17 44.59 44.63
37.41 35.70 38.89 38.53 33.85 32.19 28.24 26.91 25.04 26.72 20.38 24.75 28.24 29.97 30.79 29.60 31.74 27.39 24.71 23.16 24.56 20.24 26.46 22.56 16.55 28.50 34.74 35.76 36.62 37.76 38.29 38.75 39.25 40.27 39.78 40.24 40.49 41.21 41.64 42.22 42.80 43.44 44.27 44.70
40.11 35.54 32.64 31.71 29.77 24.48 22.62 10.47 21.53 21.09 26.20 29.31 30.99 29.07 30.35 29.10 30.12 28.83 28.37 26.35 22.70 26.81 24.39 23.09 25.44 33.31 35.37 35.07 36.59 36.28 37.71 39.45 40.12 40.38 41.20 41.46 41.21 41.78 41.67 41.49 42.72 43.42 43.65 44.99
32.27 29.56 24.39 25.14 18.95 19.00 18.18 19.05 22.71 27.88 28.82 29.92 31.51 27.32 30.44 34.08 31.18 28.51 27.65 26.51 22.60 23.99 21.99 23.31 30.42 33.51 33.73 34.84 36.15 36.28 36.46 37.85 38.15 39.09 38.95 38.60 38.97 40.17 41.89 42.55 43.25 43.25 43.16 44.53
30.78 28.44 14.34 20.00 22.75 20.22 22.77 25.14 26.69 29.77 31.84 31.72 28.76 29.23 28.20 25.09 25.72 29.85 29.95 25.56 22.97 21.48 24.44 28.81 32.84 33.13 33.48 33.57 34.24 33.99 34.41 34.80 35.38 36.93 38.03 38.86 39.82 39.40 39.41 40.46 40.68 42.14 42.79 43.38
31.26 28.88 21.37 20.59 21.66 24.07 22.29 22.33 25.35 31.83 32.46 31.82 29.31 23.11 26.64 22.65 24.99 23.81 23.82 25.42 23.84 26.96 30.37 33.32 32.93 33.42 33.36 32.72 32.70 32.45 33.49 33.12 32.98 33.95 35.38 36.53 36.89 37.57 38.35 39.75 38.99 38.11 39.49 39.95
28.94 24.18 23.68 21.76 21.41 28.18 28.17 27.62 27.15 32.88 29.66 19.97 22.84 19.92 18.03 16.67 23.31 22.71 25.35 25.17 28.51 32.97 34.13 35.05 33.36 30.62 31.38 32.71 33.01 33.03 32.77 32.80 32.51 32.27 33.22 33.42 35.63 34.36 33.09 31.51 32.15 33.08 34.09 34.95

GFSNW_sfc_wetblb_345.txt.gz
Wetbulb
53.13 53.19 53.46 53.67 53.91 53.04 47.28 39.19 30.44 43.24 51.16 42.76 40.36 36.74 39.26 44.30 43.17 45.23 44.00 39.85 38.33 35.99 37.08 34.48 33.54 35.00 37.60 40.82 39.65 36.73 37.77 33.10 29.44 33.24 34.36 36.22 34.21 34.47 33.86 28.72 27.89 27.48 26.51 29.67
52.77 52.64 52.80 53.11 53.16 51.28 42.26 35.46 35.72 43.68 48.05 38.97 34.40 38.80 41.39 43.12 42.17 42.33 42.75 41.92 41.94 41.75 38.65 36.56 35.57 37.16 41.78 41.61 39.37 36.64 37.24 32.54 28.24 31.16 32.24 32.78 32.01 33.48 33.75 32.71 30.44 27.09 25.45 31.13
52.31 52.34 52.58 52.92 52.83 52.46 43.48 34.96 29.87 37.60 40.69 42.26 40.60 38.68 39.20 39.69 44.38 43.08 43.69 43.34 43.72 41.57 39.02 40.01 37.96 37.03 41.42 41.85 40.88 48.18 42.33 32.77 31.66 29.66 31.26 33.27 29.87 32.62 33.27 33.84 26.81 27.94 33.39 36.16
52.19 52.20 52.28 52.32 52.53 52.39 43.21 36.26 30.70 35.12 30.06 37.72 36.55 34.97 37.69 36.58 37.16 42.07 42.22 41.15 40.33 39.34 37.20 37.20 35.17 37.81 38.81 40.31 44.43 39.14 37.85 32.15 31.91 33.32 34.64 34.90 34.96 34.73 33.48 31.08 35.10 30.44 32.65 35.08
51.69 51.91 51.83 51.70 52.00 50.77 42.10 36.26 33.31 34.66 32.33 34.33 31.98 36.57 33.90 35.32 36.60 38.20 37.51 38.28 37.51 38.44 37.45 39.14 37.44 37.60 38.31 36.49 37.81 37.19 35.81 31.71 31.75 31.60 35.89 34.60 33.46 36.07 35.87 35.19 35.93 35.13 35.69 35.63
50.99 51.27 51.37 51.54 51.46 48.43 40.21 40.29 39.97 37.24 33.39 30.94 29.10 29.59 33.29 35.44 36.65 36.99 40.24 37.42 35.92 36.00 39.02 39.57 39.89 41.00 41.18 41.30 39.95 37.93 34.10 31.97 29.82 26.62 32.86 33.51 31.77 36.28 36.97 38.30 38.56 37.01 33.96 39.59
50.84 50.46 50.98 50.92 51.08 48.53 41.87 40.86 38.88 35.09 30.99 32.49 31.45 33.18 34.01 32.30 33.39 33.58 37.04 38.26 35.89 38.60 41.17 40.51 41.64 41.26 41.47 42.57 41.76 42.05 35.64 31.96 30.98 27.11 30.18 24.93 33.91 37.38 37.84 37.92 39.58 40.22 40.68 41.60
50.47 50.64 49.91 50.32 50.97 50.19 42.67 42.06 40.50 37.66 32.15 33.54 33.27 33.44 33.36 34.80 36.11 34.92 35.49 36.95 38.74 40.23 38.59 34.61 32.41 32.17 35.86 38.45 41.44 41.24 40.73 37.07 28.53 28.33 26.42 34.81 37.59 40.22 37.44 35.04 35.86 38.77 38.57 41.11
50.00 49.80 49.69 49.66 50.23 50.48 43.90 41.71 43.04 41.30 35.70 32.78 35.06 32.45 33.04 30.73 29.57 31.02 33.31 37.06 37.78 37.23 36.85 33.18 26.85 26.29 31.01 30.30 34.75 40.74 40.23 40.43 36.21 31.68 24.92 26.61 33.48 38.98 43.40 40.35 32.32 41.80 41.64 42.33
49.46 49.33 49.58 49.61 50.32 50.26 44.53 41.97 44.26 40.34 36.32 38.10 36.16 33.14 32.68 35.34 32.01 29.49 32.38 34.42 35.09 36.38 29.50 28.02 24.44 24.84 32.91 28.24 29.23 31.06 34.44 34.41 32.37 33.49 32.28 34.80 38.55 41.34 41.03 31.04 34.75 39.92 41.79 41.14
49.15 49.18 49.34 49.60 49.93 50.13 45.63 42.98 44.56 41.32 37.39 37.71 39.52 39.14 34.84 34.01 33.78 30.11 31.99 31.50 31.51 30.50 26.71 26.54 26.20 26.74 30.33 30.45 32.88 32.77 32.49 32.93 31.99 31.71 31.49 29.83 37.94 39.07 36.79 37.32 42.03 41.97 41.70 42.23
48.97 49.07 49.26 49.41 49.54 49.98 48.39 42.28 43.71 45.17 39.59 38.16 39.99 40.78 41.26 40.07 39.34 35.51 34.03 32.43 32.05 33.78 28.40 29.61 32.20 27.88 31.55 29.47 24.61 33.90 29.98 34.17 30.45 32.35 33.41 37.70 38.01 36.12 40.20 40.57 38.85 39.76 40.77 43.46
48.89 48.79 49.02 49.24 49.40 49.52 47.87 41.34 41.08 43.73 38.89 37.25 37.73 36.48 40.63 42.66 42.14 42.75 33.75 34.00 36.18 34.41 35.69 32.75 31.84 27.38 29.61 24.56 26.24 28.30 33.03 36.34 31.61 31.53 34.29 35.49 37.17 39.37 40.68 42.43 40.46 41.02 41.30 43.59
48.83 48.82 49.23 49.54 49.73 49.86 49.22 41.33 42.09 42.29 39.63 33.16 32.93 38.98 37.86 41.35 42.11 41.42 41.25 39.17 38.10 36.92 35.90 34.23 32.41 29.98 34.49 29.67 31.27 31.29 32.60 34.35 32.95 32.82 34.57 35.86 37.53 39.06 39.82 40.49 41.86 41.22 41.64 43.22
48.51 48.68 48.99 49.42 49.35 49.17 46.57 44.05 42.72 44.37 38.93 31.90 31.65 34.93 37.53 39.73 39.31 39.51 40.37 39.25 37.37 36.36 32.96 32.26 30.40 34.32 32.61 32.74 32.14 29.90 33.76 32.02 30.19 29.23 35.47 35.57 36.13 39.42 41.37 40.80 40.88 41.60 40.89 41.69
48.21 48.54 48.28 48.26 48.18 47.23 42.08 35.20 40.67 44.67 43.80 36.08 29.58 33.91 33.19 35.99 38.78 37.74 37.43 38.31 38.02 37.53 33.96 32.98 35.25 37.56 34.71 29.59 27.72 33.23 35.29 36.72 37.42 34.38 38.24 38.62 39.62 40.78 41.93 41.37 41.97 42.48 42.00 42.36
47.94 48.46 48.22 48.08 47.51 41.83 37.87 35.61 38.54 45.02 44.95 35.90 30.72 29.26 31.81 34.56 34.33 34.78 35.86 37.24 37.47 37.09 35.24 33.63 33.68 34.11 35.34 31.85 27.95 33.45 35.68 36.98 37.62 38.87 38.74 36.45 38.53 37.65 41.27 41.76 42.04 43.37 43.17 44.16
47.79 47.89 47.97 47.32 46.91 44.85 40.72 41.76 46.70 46.52 41.39 38.33 30.07 24.32 28.26 34.11 29.90 29.03 33.67 31.44 33.95 36.63 34.75 35.21 33.00 34.24 33.89 28.61 32.57 34.89 36.14 36.61 36.45 37.32 38.92 38.64 39.66 39.91 40.00 41.25 41.51 40.43 40.35 41.70
47.59 47.41 46.41 41.74 38.54 36.40 37.98 45.71 46.83 44.84 37.90 30.93 27.40 26.14 23.50 33.67 32.69 34.02 32.86 34.31 30.08 35.35 31.05 30.01 32.47 29.66 27.32 30.30 32.34 33.54 35.09 34.78 35.21 37.10 37.56 38.01 37.55 37.86 38.85 39.49 39.83 39.45 39.65 40.69
47.02 41.47 35.73 31.30 33.79 43.07 43.85 40.10 35.56 36.07 34.06 33.64 29.74 30.67 26.34 30.89 29.41 25.50 30.13 33.55 29.59 26.45 29.40 30.80 30.34 28.55 33.10 34.75 35.78 36.57 36.67 37.24 37.51 34.50 33.80 35.29 35.64 37.10 37.90 38.47 40.01 40.67 41.02 41.42
39.75 32.97 30.72 34.32 42.18 37.07 33.12 31.16 30.07 31.22 28.27 30.85 31.87 31.83 28.43 31.09 25.46 23.81 29.17 23.60 22.81 23.15 23.49 26.28 21.36 23.62 31.54 36.05 36.42 37.55 37.92 38.23 38.12 38.30 38.26 38.41 38.07 37.53 37.68 38.26 39.24 40.24 40.81 40.95
38.69 37.35 38.51 38.28 34.50 32.14 28.49 26.39 24.10 27.19 23.78 23.86 27.82 28.55 30.97 29.58 30.30 26.37 24.72 22.50 23.67 20.51 26.08 25.70 21.11 27.47 33.17 34.04 34.48 34.95 35.22 36.34 37.09 38.52 38.14 38.73 39.57 40.05 40.10 40.26 39.67 40.01 40.92 41.56
40.03 34.49 32.23 30.25 30.39 25.00 21.20 12.33 16.65 22.10 25.43 28.73 28.28 26.42 28.99 28.03 29.26 28.64 26.26 24.08 22.61 27.08 23.23 22.46 25.86 31.90 33.61 35.29 35.66 36.29 37.61 38.10 38.31 37.88 38.96 39.40 39.57 40.93 41.05 40.16 41.06 41.69 41.17 41.69
31.31 29.62 24.67 24.53 16.97 22.35 17.27 20.06 22.15 27.25 29.27 29.29 30.61 26.97 29.02 30.36 29.87 25.08 17.88 28.35 26.10 23.39 21.53 22.85 30.18 32.91 34.75 35.55 35.73 35.04 34.21 34.83 34.69 34.86 35.61 35.87 35.85 36.33 38.24 39.75 41.12 40.44 39.91 41.10
31.01 28.21 16.73 20.95 22.70 20.34 23.31 25.13 24.75 28.96 31.94 32.08 27.96 27.78 27.44 25.96 25.83 22.18 24.30 22.93 23.24 23.79 24.44 28.95 32.93 33.59 33.62 32.83 32.22 31.83 32.38 32.51 32.08 32.55 32.63 32.48 33.47 34.15 35.16 37.42 37.72 38.39 39.07 39.26
31.47 29.33 22.85 18.42 19.86 21.33 20.52 24.74 24.36 31.09 31.41 30.38 27.53 22.13 24.43 25.12 27.01 23.35 22.79 15.29 20.99 25.37 28.76 32.22 33.39 32.07 31.42 30.21 30.89 31.75 32.92 32.43 31.67 31.82 31.70 33.46 33.81 33.67 34.87 34.27 33.35 33.36 34.20 34.21
29.26 25.92 24.24 22.02 20.98 24.42 25.55 28.94 28.18 33.18 27.60 18.70 20.17 14.97 17.75 15.77 20.35 21.67 22.75 22.99 26.21 30.68 32.30 34.06 31.96 30.78 30.35 30.66 30.79 30.87 31.55 31.00 30.82 31.46 31.20 31.14 32.33 34.38 33.37 31.65 33.19 34.02 34.47 34.64